Anchorage Merrill, AK

2:46 AM AKDT on May 28, 2017 (GMT -0800)
Merrill

Weather History for PAMR - January, 2012

Change the Weather History Date:

Sunday, January 29, 2012

  Actual Average Record
Temperature  
Mean Temperature -8 °F -  
Max Temperature 0 °F 22 °F 39 °F (2016)
Min Temperature -15 °F 10 °F -15 °F (1999)
Degree Days  
Heating Degree Days 72    
Moisture  
Dew Point -10 °F    
Average Humidity 80    
Maximum Humidity 87    
Minimum Humidity 76    
Precipitation  
Precipitation 0.00 in - - ()
Sea Level Pressure  
Sea Level Pressure 29.42 in    
Wind  
Wind Speed 1 mph (NE)    
Max Wind Speed 6 mph    
Max Gust Speed -    
Visibility 7 miles    
Events      
Averages and records for this station are not official NWS values.
T = Trace of Precipitation, MM = Missing Value Source: NWS Daily Summary

Daily Weather History Graph

Daily Weather History Graph

Search for Another Location

Airport or City:

Trip Planner

Search our weather history database for the weather conditions in past years. The results will help you decide how hot, cold, wet, or windy it might be!

Date:

Astronomy

Jan. 29, 2012 Rise Set
Actual Time 9:27 AM AKST 4:57 PM AKST
Civil Twilight 8:37 AM AKST 5:48 PM AKST
Nautical Twilight 7:43 AM AKST 6:42 PM AKST
Astronomical Twilight 6:53 AM AKST 7:32 PM AKST
Moon 10:11 AM AKST (1/29) 1:00 AM AKST (1/29)
Length of Visible Light 9h 11m
Length of Day
7h 29m
Waxing Crescent, 38% of the Moon is Illuminated
Jan 29
Waxing Crescent
Jan 30
First Quarter
Feb 7
Full
Feb 14
Last Quarter
Feb 21
New

Hourly Weather History & Observations

Time (AKST) Temp. Windchill Dew Point Humidity Pressure Visibility Wind Dir Wind Speed Gust Speed Precip Events Conditions
12:53 AM -15.0 °F - -20.0 °F 78% 29.58 in 10.0 mi Calm Calm - N/A   Partly Cloudy
1:53 AM -13.0 °F - -17.0 °F 82% 29.57 in 10.0 mi Calm Calm - N/A   Partly Cloudy
3:53 AM -11.9 °F - -16.1 °F 82% 29.54 in 8.0 mi Calm Calm - N/A   Mostly Cloudy
4:53 AM -11.9 °F - -17.0 °F 78% 29.52 in 4.0 mi Calm Calm - N/A   Mostly Cloudy
5:02 AM -13.0 °F - -18.4 °F 77% 29.51 in 4.0 mi Calm Calm - N/A   Scattered Clouds
5:44 AM -9.4 °F - -14.8 °F 77% 29.49 in 3.0 mi Calm Calm - N/A   Mostly Cloudy
5:53 AM -9.0 °F - -14.1 °F 79% 29.50 in 3.0 mi Calm Calm - N/A   Mostly Cloudy
6:53 AM -9.9 °F - -15.0 °F 78% 29.50 in 2.0 mi Calm Calm - N/A   Haze
7:53 AM -9.0 °F -20.4 °F -13.0 °F 83% 29.49 in 1.5 mi East 4.6 mph - N/A   Mostly Cloudy
8:00 AM -9.4 °F -20.9 °F -13.0 °F 84% 29.47 in 5.0 mi East 4.6 mph - N/A   Scattered Clouds
8:19 AM -9.4 °F -22.7 °F -13.0 °F 84% 29.47 in 5.0 mi East 5.8 mph - N/A   Overcast
8:40 AM -7.6 °F -16.5 °F -11.2 °F 84% 29.46 in 5.0 mi ENE 3.5 mph - N/A   Mostly Cloudy
8:53 AM -7.1 °F -18.1 °F -11.9 °F 79% 29.47 in 5.0 mi East 4.6 mph - N/A   Haze
9:53 AM -8.0 °F -16.9 °F -13.0 °F 79% 29.46 in 7.0 mi East 3.5 mph - N/A   Mostly Cloudy
10:53 AM -4.0 °F - -9.0 °F 79% 29.44 in 10.0 mi Calm Calm - N/A   Mostly Cloudy
11:41 AM -2.2 °F - -7.6 °F 78% 29.43 in 10.0 mi Calm Calm - N/A   Overcast
11:53 AM -2.0 °F - -7.1 °F 79% 29.44 in 10.0 mi Calm Calm - N/A   Overcast
12:53 PM -0.9 °F - -6.0 °F 79% 29.43 in 10.0 mi Calm Calm - N/A   Overcast
1:53 PM -0.0 °F -7.9 °F -6.0 °F 76% 29.41 in 10.0 mi North 3.5 mph - N/A   Mostly Cloudy
2:53 PM -0.0 °F - -5.1 °F 79% 29.39 in 10.0 mi Calm Calm - N/A   Partly Cloudy
3:53 PM -0.9 °F - -5.1 °F 83% 29.38 in 10.0 mi Calm Calm - N/A   Partly Cloudy
4:53 PM -2.0 °F - -7.1 °F 79% 29.36 in 10.0 mi Calm Calm - N/A   Partly Cloudy
5:53 PM -2.9 °F -13.3 °F -7.1 °F 82% 29.36 in 10.0 mi NE 4.6 mph - N/A   Partly Cloudy
6:28 PM -5.8 °F - -9.4 °F 84% 29.34 in 4.0 mi Calm Calm - N/A   Overcast
6:53 PM -0.9 °F -11.0 °F -4.0 °F 87% 29.34 in 1.0 mi NE 4.6 mph - N/A   Mostly Cloudy
6:59 PM -0.4 °F -8.3 °F -5.8 °F 78% 29.33 in 3.0 mi ENE 3.5 mph - N/A   Scattered Clouds
7:53 PM -2.9 °F - -8.0 °F 79% 29.33 in 10.0 mi Calm Calm - N/A   Clear
8:17 PM -2.2 °F - -5.8 °F 85% 29.31 in 10.0 mi Calm Calm - N/A   Scattered Clouds
8:53 PM -4.0 °F -14.6 °F -8.0 °F 83% 29.32 in 10.0 mi East 4.6 mph - N/A   Scattered Clouds
9:33 PM -0.4 °F - -5.8 °F 78% 29.30 in 7.0 mi Calm Calm - N/A   Overcast
9:53 PM -0.9 °F -11.0 °F -6.0 °F 79% 29.31 in 10.0 mi North 4.6 mph - N/A   Mostly Cloudy
9:59 PM -0.4 °F -10.4 °F -5.8 °F 78% 29.29 in 10.0 mi NNE 4.6 mph - N/A   Mostly Cloudy
10:53 PM -2.0 °F -12.2 °F -7.1 °F 79% 29.30 in 10.0 mi NNE 4.6 mph - N/A   Mostly Cloudy
11:53 PM -8.0 °F - -13.0 °F 79% 29.30 in 10.0 mi Calm Calm - N/A   Scattered Clouds